tititudorancea.com
Station Historical Data
Daily Summary for January 28, 2018 Units:  Metric    English   Both
« Previous Day
Next Day »
Daily Weekly Monthly Yearly Custom
  High: Low: Average:
Temperature: -17.8 °C 24.2 °C 31.3 °C
Dew Point: -17.8 °C 11.9 °C 16.1 °C
Humidity: Humidity % 20 % 44 %
Wind Speed: 0 km/h 0 km/h 6.8 km/h
Wind Gust: 0 km/h - -
Wind:- - SE
Pressure: 0 hPa 999.9 hPa -
Precipitation: 0 mm    
Historical Graphs
 
 
Ararat weather Find more about Weather in Ararat, AU


 



 


Tabular Data for January 28, 2018
Time Temperature Dew Point Pressure Wind Wind Speed Wind Gust Humidity Rainfall Rate (Hourly)
-17.8 °C -17.8 °C 0 hPa Calm     Humidity % 0 mm
00:00 25.2 °C 18.6 °C 1005 hPa Calm     67 % 0 mm
00:05 25 °C 18.4 °C 1005 hPa Calm     67 % 0 mm
00:10 24.9 °C 18.6 °C 1005 hPa Calm     68 % 0 mm
00:15 24.8 °C 18.4 °C 1005 hPa Calm     68 % 0 mm
00:20 24.7 °C 18.4 °C 1005 hPa Calm     68 % 0 mm
00:25 24.6 °C 18.3 °C 1005 hPa Calm     68 % 0 mm
00:30 24.6 °C 18.5 °C 1005 hPa Calm     69 % 0 mm
00:35 24.7 °C 18.6 °C 1005 hPa Calm     69 % 0 mm
00:40 24.7 °C 18.7 °C 1005 hPa SE 1.3 km/h 1.6 km/h 69 % 0 mm
00:45 24.7 °C 18.7 °C 1005 hPa Calm     69 % 0 mm
00:50 24.7 °C 18.4 °C 1005 hPa Calm     68 % 0 mm
00:55 24.7 °C 18.4 °C 1005 hPa Calm     68 % 0 mm
01:00 24.9 °C 17.9 °C 1005 hPa SE 3.7 km/h 5.6 km/h 65 % 0 mm
01:05 25.3 °C 17.8 °C 1005 hPa SE 2.1 km/h 3.7 km/h 63 % 0 mm
01:10 25.7 °C 17.9 °C 1005 hPa SE 3.2 km/h 3.2 km/h 62 % 0 mm
01:15 26.1 °C 17.9 °C 1005 hPa SE 2.1 km/h 7.4 km/h 61 % 0 mm
01:20 26.3 °C 17.9 °C 1005 hPa SE 1.9 km/h 5.6 km/h 60 % 0 mm
01:25 26.6 °C 17.9 °C 1005 hPa SE 2.6 km/h 3.7 km/h 59 % 0 mm
01:30 26.6 °C 17.9 °C 1005 hPa SE 2.7 km/h 3.7 km/h 59 % 0 mm
01:35 26.7 °C 18.1 °C 1005 hPa SE 1.4 km/h 3.2 km/h 59 % 0 mm
01:40 26.8 °C 18.1 °C 1005 hPa SE 2.7 km/h 7.4 km/h 59 % 0 mm
01:45 26.9 °C 18.2 °C 1005 hPa SE 3.5 km/h 5.6 km/h 59 % 0 mm
01:50 26.9 °C 18.3 °C 1005 hPa SE 2.3 km/h 7.4 km/h 59 % 0 mm
01:55 26.9 °C 18.2 °C 1005 hPa SE 4 km/h 6.4 km/h 59 % 0 mm
02:00 26.9 °C 18.2 °C 1004.6 hPa SE 5.6 km/h 7.4 km/h 59 % 0 mm
02:05 26.8 °C 18.4 °C 1004.6 hPa SE 3.2 km/h 5.6 km/h 60 % 0 mm
02:10 26.6 °C 18.2 °C 1004.6 hPa SE 2.1 km/h 3.7 km/h 60 % 0 mm
02:15 26.4 °C 18.1 °C 1004.6 hPa SE 1.4 km/h 3.7 km/h 60 % 0 mm
02:20 26.4 °C 18.3 °C 1004.6 hPa SE 2.1 km/h 3.7 km/h 61 % 0 mm
02:25 26.3 °C 18.4 °C 1004.6 hPa SE 1.9 km/h 7.4 km/h 62 % 0 mm
02:30 26.4 °C 18.6 °C 1004.6 hPa SE 3.1 km/h 8 km/h 62 % 0 mm
02:35 26.5 °C 18.4 °C 1004.6 hPa SE 2.1 km/h 5.6 km/h 61 % 0 mm
02:40 26.5 °C 18.6 °C 1004.6 hPa SE 3.2 km/h 7.4 km/h 62 % 0 mm
02:45 26.5 °C 18.6 °C 1004.6 hPa SE 1.4 km/h 6.4 km/h 62 % 0 mm
02:50 26.4 °C 18.6 °C 1004.6 hPa SE 1.6 km/h 5.6 km/h 62 % 0 mm
02:55 26.4 °C 18.5 °C 1004.3 hPa SE 2.3 km/h 5.6 km/h 62 % 0 mm
03:00 26.3 °C 18.4 °C 1004.6 hPa SE 1.8 km/h 3.7 km/h 62 % 0 mm
03:05 26.3 °C 18.7 °C 1004.3 hPa Calm   1.9 km/h 63 % 0 mm
03:11 26.2 °C 18.6 °C 1004.3 hPa SE 0.6 km/h 5.6 km/h 63 % 0 mm
03:16 26.2 °C 18.6 °C 1004.3 hPa SE 0.6 km/h 1.9 km/h 63 % 0 mm
03:21 26.1 °C 18.5 °C 1004.3 hPa SE 2.1 km/h 5.6 km/h 63 % 0 mm
03:26 26 °C 18.7 °C 1004.3 hPa SE 1.3 km/h 3.7 km/h 64 % 0 mm
03:31 25.9 °C 18.6 °C 1004.3 hPa SE 1.8 km/h 5.6 km/h 64 % 0 mm
03:36 25.8 °C 18.4 °C 1004.3 hPa SE 2.7 km/h 3.7 km/h 64 % 0 mm
03:41 25.7 °C 18.6 °C 1004.3 hPa SE 1.8 km/h 3.7 km/h 65 % 0 mm
03:46 25.6 °C 18.6 °C 1004.3 hPa SE 2.9 km/h 3.7 km/h 65 % 0 mm
03:51 25.6 °C 18.5 °C 1003.9 hPa SE 4.2 km/h 5.6 km/h 65 % 0 mm
03:56 25.5 °C 18.4 °C 1004.3 hPa SE 1.1 km/h 3.7 km/h 65 % 0 mm
04:01 25.4 °C 18.3 °C 1004.3 hPa SE 4.7 km/h 9.7 km/h 65 % 0 mm
04:06 25.3 °C 18.5 °C 1004.3 hPa SE 2.1 km/h 5.6 km/h 66 % 0 mm
04:11 25.4 °C 18.3 °C 1004.3 hPa SE 4.3 km/h 5.6 km/h 65 % 0 mm
04:16 25.4 °C 18.4 °C 1004.3 hPa SE 4.5 km/h 7.4 km/h 65 % 0 mm
04:21 25.5 °C 18.4 °C 1004.3 hPa SE 5.5 km/h 6.4 km/h 65 % 0 mm
04:26 25.5 °C 18.4 °C 1004.3 hPa Calm   1.9 km/h 65 % 0 mm
04:31 25.5 °C 18.4 °C 1004.3 hPa SE 1.9 km/h 7.4 km/h 65 % 0 mm
04:36 25.5 °C 18.4 °C 1004.3 hPa SE 3.1 km/h 3.7 km/h 65 % 0 mm
04:41 25.5 °C 18.4 °C 1004.3 hPa East 7.6 km/h 9.7 km/h 65 % 0 mm
04:46 25.5 °C 18.4 °C 1003.9 hPa East 5.8 km/h 9.7 km/h 65 % 0 mm
04:51 25.5 °C 18.4 °C 1004.3 hPa East 7.7 km/h 13 km/h 65 % 0 mm
04:56 25.5 °C 18.2 °C 1004.3 hPa East 7.1 km/h 11.1 km/h 64 % 0 mm
05:01 25.6 °C 18.3 °C 1004.3 hPa East 6.9 km/h 9.3 km/h 64 % 0 mm
05:06 25.7 °C 18.3 °C 1004.3 hPa ENE 8.4 km/h 9.7 km/h 64 % 0 mm
05:11 25.7 °C 18.3 °C 1004.3 hPa ENE 5 km/h 9.3 km/h 64 % 0 mm
05:16 25.7 °C 18.3 °C 1004.3 hPa ENE 7.7 km/h 16.7 km/h 64 % 0 mm
05:21 25.6 °C 18.3 °C 1004.3 hPa ENE 4.8 km/h 7.4 km/h 64 % 0 mm
05:26 25.5 °C 18.2 °C 1004.6 hPa ENE 6.6 km/h 9.3 km/h 64 % 0 mm
05:31 25.4 °C 18.4 °C 1004.6 hPa ENE 6.8 km/h 9.3 km/h 65 % 0 mm
05:36 25.4 °C 18.3 °C 1004.6 hPa ENE 4.3 km/h 11.1 km/h 65 % 0 mm
05:41 25.3 °C 18.3 °C 1004.3 hPa ENE 7.1 km/h 11.1 km/h 65 % 0 mm
05:46 25.3 °C 18.4 °C 1004.6 hPa ENE 6.4 km/h 7.4 km/h 66 % 0 mm
05:51 25.2 °C 18.4 °C 1004.6 hPa ENE 4.8 km/h 7.4 km/h 66 % 0 mm
05:56 25.2 °C 18.4 °C 1004.6 hPa NE 6.4 km/h 6.4 km/h 66 % 0 mm
06:01 25.1 °C 18.3 °C 1004.6 hPa NE 4.2 km/h 9.3 km/h 66 % 0 mm
06:06 25 °C 18.2 °C 1004.6 hPa NE 4.8 km/h 8 km/h 66 % 0 mm
06:11 24.9 °C 18.4 °C 1004.6 hPa NE 5.3 km/h 7.4 km/h 67 % 0 mm
06:16 24.8 °C 18.3 °C 1004.6 hPa NE 3.1 km/h 5.6 km/h 67 % 0 mm
06:21 24.7 °C 18.2 °C 1004.6 hPa NE 2.6 km/h 5.6 km/h 67 % 0 mm
06:26 24.6 °C 18.3 °C 1004.6 hPa NE 2.3 km/h 5.6 km/h 68 % 0 mm
06:31 24.5 °C 18.2 °C 1004.6 hPa NE 2.4 km/h 5.6 km/h 68 % 0 mm
06:36 24.4 °C 18.3 °C 1004.6 hPa NE 1.9 km/h 3.7 km/h 69 % 0 mm
06:41 24.3 °C 18.3 °C 1005 hPa NE 2.9 km/h 5.6 km/h 69 % 0 mm
06:46 24.3 °C 18.2 °C 1005 hPa NE 2.3 km/h 5.6 km/h 69 % 0 mm
06:51 24.2 °C 18.2 °C 1004.6 hPa NE 3.5 km/h 3.5 km/h 69 % 0 mm
06:56 24.2 °C 18.2 °C 1004.6 hPa NE 2.3 km/h 5.6 km/h 69 % 0 mm
07:02 24.2 °C 18.1 °C 1005 hPa NE 1.4 km/h 3.7 km/h 69 % 0 mm
07:07 24.2 °C 18.2 °C 1005 hPa NE 4 km/h 4 km/h 69 % 0 mm
07:12 24.3 °C 18 °C 1005 hPa NE 2.9 km/h 3.7 km/h 68 % 0 mm
07:17 24.4 °C 18.1 °C 1005 hPa NE 1.6 km/h 6.4 km/h 68 % 0 mm
07:22 24.5 °C 18.2 °C 1005 hPa NE 5.1 km/h 5.6 km/h 68 % 0 mm
07:27 24.7 °C 18.2 °C 1005 hPa NE 2.7 km/h 5.6 km/h 67 % 0 mm
07:32 24.8 °C 18.1 °C 1005 hPa NE 4 km/h 5.6 km/h 66 % 0 mm
07:37 25.1 °C 18 °C 1005 hPa NE 2.9 km/h 6.4 km/h 65 % 0 mm
07:42 25.3 °C 18 °C 1005 hPa NE 7.4 km/h 11.1 km/h 64 % 0 mm
07:47 25.6 °C 18 °C 1005.3 hPa NE 6.1 km/h 9.3 km/h 63 % 0 mm
07:52 25.8 °C 17.9 °C 1005.3 hPa NE 4.7 km/h 7.4 km/h 62 % 0 mm
07:57 25.9 °C 18.1 °C 1005.3 hPa NE 5 km/h 8 km/h 62 % 0 mm
08:02 26.1 °C 18 °C 1005.3 hPa NNE 8.7 km/h 11.1 km/h 61 % 0 mm
08:07 26.3 °C 17.9 °C 1005.3 hPa NNE 5 km/h 13 km/h 60 % 0 mm
08:12 26.7 °C 18 °C 1005 hPa NNE 5.6 km/h 9.3 km/h 59 % 0 mm
08:17 26.9 °C 17.9 °C 1005 hPa ENE 7.9 km/h 11.1 km/h 58 % 0 mm
08:22 27.1 °C 17.8 °C 1005 hPa NE 9.3 km/h 14.8 km/h 57 % 0 mm
08:27 27.3 °C 18.1 °C 1005 hPa ENE 15.1 km/h 22.2 km/h 57 % 0 mm
08:32 27.6 °C 18.1 °C 1005 hPa NE 9.2 km/h 22.2 km/h 56 % 0 mm
08:37 27.8 °C 18.2 °C 1005.3 hPa ENE 7.9 km/h 17.7 km/h 56 % 0 mm
08:42 27.9 °C 18 °C 1005.3 hPa NNE 12.9 km/h 18.5 km/h 55 % 0 mm
08:44 27.9 °C 18 °C 1005 hPa NE 18.5 km/h 18.5 km/h 55 % 0 mm
08:49 28.1 °C 18.2 °C 1005.3 hPa NE 8.4 km/h 16.7 km/h 55 % 0 mm
08:54 28.2 °C 18.1 °C 1005.3 hPa North 10.8 km/h 18.5 km/h 54 % 0 mm
08:59 28.4 °C 18.2 °C 1005.3 hPa NE 10.6 km/h 18.5 km/h 54 % 0 mm
09:04 28.6 °C 18.1 °C 1005.3 hPa NE 8.7 km/h 11.3 km/h 53 % 0 mm
09:09 28.8 °C 18.3 °C 1005.3 hPa NE 10.1 km/h 14.8 km/h 53 % 0 mm
09:14 29.1 °C 18.2 °C 1005.3 hPa NNE 6.9 km/h 9.7 km/h 52 % 0 mm
09:19 29.2 °C 18.1 °C 1005.3 hPa NNE 9.3 km/h 14.8 km/h 51 % 0 mm
09:24 29.3 °C 18.2 °C 1005.3 hPa North 10.1 km/h 16.7 km/h 51 % 0 mm
09:29 29.4 °C 18.2 °C 1005 hPa NNE 6.3 km/h 11.3 km/h 51 % 0 mm
09:34 29.7 °C 17.8 °C 1005 hPa NE 7.2 km/h 14.8 km/h 49 % 0 mm
09:35 29.7 °C 17.9 °C 1005.3 hPa ENE 8 km/h 16.7 km/h 49 % 0 mm
09:40 30 °C 18.1 °C 1005.3 hPa NNE 9.8 km/h 16.7 km/h 49 % 0 mm
09:45 30.2 °C 17.9 °C 1005.3 hPa North 7.7 km/h 13 km/h 48 % 0 mm
09:50 30.4 °C 18.2 °C 1005.3 hPa NNE 10.3 km/h 13 km/h 48 % 0 mm
09:55 30.6 °C 17.6 °C 1005.3 hPa North 10.1 km/h 16.7 km/h 46 % 0 mm
10:00 30.6 °C 17.6 °C 1005.3 hPa NNE 8.7 km/h 16.7 km/h 46 % 0 mm
10:05 30.8 °C 18.2 °C 1005.3 hPa NNE 6.3 km/h 17.7 km/h 47 % 0 mm
10:10 31.2 °C 17.5 °C 1005 hPa North 12.7 km/h 20.4 km/h 44 % 0 mm
10:15 31.2 °C 17.9 °C 1005 hPa NNW 10.6 km/h 18.5 km/h 45 % 0 mm
10:20 31.3 °C 17.6 °C 1005 hPa North 14 km/h 20.4 km/h 44 % 0 mm
10:25 31.2 °C 17.9 °C 1005 hPa NNE 14.2 km/h 24.1 km/h 45 % 0 mm
10:30 31.3 °C 17.9 °C 1005 hPa NNE 16.6 km/h 20.4 km/h 45 % 0 mm
10:35 31.3 °C 17.9 °C 1005 hPa NNE 11.9 km/h 20.9 km/h 45 % 0 mm
10:40 31.6 °C 18.2 °C 1005 hPa NNE 8.7 km/h 14.8 km/h 45 % 0 mm
10:45 31.8 °C 18 °C 1004.6 hPa NNE 15.3 km/h 20.4 km/h 44 % 0 mm
10:50 31.9 °C 18.5 °C 1004.6 hPa NNE 8.9 km/h 13 km/h 45 % 0 mm
10:55 32.1 °C 18.3 °C 1004.6 hPa NNE 12.7 km/h 22.2 km/h 44 % 0 mm
11:00 32.1 °C 17.9 °C 1004.6 hPa NNE 15 km/h 16.1 km/h 43 % 0 mm
11:05 32.4 °C 18.6 °C 1004.6 hPa North 9.5 km/h 13 km/h 44 % 0 mm
11:10 32.4 °C 18.2 °C 1004.6 hPa North 14.2 km/h 22.2 km/h 43 % 0 mm
11:15 32.6 °C 18.4 °C 1004.6 hPa ENE 6.4 km/h 18.5 km/h 43 % 0 mm
11:20 32.6 °C 18.4 °C 1004.6 hPa NNE 11.6 km/h 22.2 km/h 43 % 0 mm
11:25 32.9 °C 18.7 °C 1004.6 hPa NNE 8.2 km/h 13 km/h 43 % 0 mm
11:30 33.6 °C 18.5 °C 1004.6 hPa North 9 km/h 18.5 km/h 41 % 0 mm
11:35 33.7 °C 18.2 °C 1004.3 hPa North 13.4 km/h 22.2 km/h 40 % 0 mm
11:40 33.7 °C 18.2 °C 1004.3 hPa NNE 9.8 km/h 13 km/h 40 % 0 mm
11:45 33.8 °C 18.3 °C 1004.3 hPa NNE 14.2 km/h 18.5 km/h 40 % 0 mm
11:50 33.7 °C 17.8 °C 1004.3 hPa North 17.9 km/h 20.4 km/h 39 % 0 mm
11:55 33.9 °C 18 °C 1004.3 hPa NNE 8.4 km/h 14.8 km/h 39 % 0 mm
12:00 34 °C 18.1 °C 1004.3 hPa North 9 km/h 16.7 km/h 39 % 0 mm
12:05 33.9 °C 18.1 °C 1004.3 hPa NNW 11.4 km/h 16.7 km/h 39 % 0 mm
12:10 34.2 °C 18.2 °C 1004.3 hPa NNE 16.9 km/h 25.9 km/h 39 % 0 mm
12:15 34.4 °C 18.4 °C 1004.3 hPa NE 13 km/h 18.5 km/h 39 % 0 mm
12:20 34.7 °C 18.3 °C 1003.9 hPa NNE 12.2 km/h 18.5 km/h 38 % 0 mm
12:25 34.7 °C 17.9 °C 1003.9 hPa North 14.8 km/h 18.5 km/h 37 % 0 mm
12:30 34.7 °C 18.3 °C 1003.9 hPa North 10.9 km/h 18.5 km/h 38 % 0 mm
12:35 34.8 °C 18.4 °C 1003.9 hPa NNE 5 km/h 14.8 km/h 38 % 0 mm
12:40 35.1 °C 17.7 °C 1003.9 hPa North 11.3 km/h 18.5 km/h 36 % 0 mm
12:45 34.8 °C 18 °C 1003.9 hPa NNW 10 km/h 16.7 km/h 37 % 0 mm
12:50 35 °C 17.7 °C 1003.9 hPa North 5.6 km/h 12.9 km/h 36 % 0 mm
12:55 35.2 °C 17.4 °C 1003.6 hPa North 8.2 km/h 13 km/h 35 % 0 mm
13:00 35.7 °C 17.4 °C 1003.6 hPa North 9.7 km/h 13 km/h 34 % 0 mm
13:05 35.9 °C 17.6 °C 1003.6 hPa NE 16.9 km/h 19.3 km/h 34 % 0 mm
13:10 35.7 °C 16.9 °C 1003.6 hPa North 8.7 km/h 20.4 km/h 33 % 0 mm
13:15 35.8 °C 17.5 °C 1003.6 hPa NNE 16.4 km/h 27.8 km/h 34 % 0 mm
13:20 35.8 °C 17.5 °C 1003.3 hPa North 11.6 km/h 18.5 km/h 34 % 0 mm
13:25 36.2 °C 16.9 °C 1003.3 hPa NW 16.4 km/h 25.9 km/h 32 % 0 mm
13:30 36.2 °C 17.4 °C 1002.9 hPa NNE 14.6 km/h 27.8 km/h 33 % 0 mm
13:35 36.1 °C 16.8 °C 1002.9 hPa North 19 km/h 27.8 km/h 32 % 0 mm
13:40 36.2 °C 15.8 °C 1002.9 hPa WNW 11.6 km/h 18.5 km/h 30 % 0 mm
13:45 36.4 °C 16.1 °C 1002.9 hPa NNW 9.2 km/h 20.4 km/h 30 % 0 mm
13:50 36.5 °C 15.6 °C 1002.9 hPa NNE 15.1 km/h 22.2 km/h 29 % 0 mm
13:55 36.4 °C 16.1 °C 1002.9 hPa NNE 10.5 km/h 18.5 km/h 30 % 0 mm
14:00 36.8 °C 15.3 °C 1002.9 hPa NNW 13.4 km/h 18.5 km/h 28 % 0 mm
14:05 36.4 °C 14.9 °C 1002.6 hPa NNW 6.3 km/h 11.3 km/h 28 % 0 mm
14:10 36.7 °C 15.7 °C 1002.6 hPa NNE 17.2 km/h 22.2 km/h 29 % 0 mm
14:15 36.8 °C 15.9 °C 1002.6 hPa North 14.3 km/h 18.5 km/h 29 % 0 mm
14:20 36.8 °C 15.3 °C 1002.6 hPa NW 9.8 km/h 13 km/h 28 % 0 mm
14:25 37.1 °C 15 °C 1002.6 hPa WNW 11.6 km/h 14.8 km/h 27 % 0 mm
14:30 37 °C 14.3 °C 1002.6 hPa WNW 10 km/h 16.7 km/h 26 % 0 mm
14:35 37 °C 15.5 °C 1002.6 hPa NW 16.9 km/h 18.5 km/h 28 % 0 mm
14:40 37.2 °C 16.2 °C 1002.6 hPa NNE 10.5 km/h 14.8 km/h 29 % 0 mm
14:45 37.2 °C 15.6 °C 1002.3 hPa NE 3.7 km/h 20.4 km/h 28 % 0 mm
14:50 37 °C 14.9 °C 1002.3 hPa NE 12.9 km/h 18.5 km/h 27 % 0 mm
14:55 37.4 °C 15.3 °C 1002.3 hPa NW 6.4 km/h 20.4 km/h 27 % 0 mm
15:00 37.6 °C 14.8 °C 1002.3 hPa North 11.4 km/h 25.9 km/h 26 % 0 mm
15:05 37.4 °C 14.1 °C 1002.3 hPa WNW 1.3 km/h 9.3 km/h 25 % 0 mm
15:11 37.7 °C 14.9 °C 1001.9 hPa NNE 7.9 km/h 24.1 km/h 26 % 0 mm
15:15 38 °C 14.6 °C 1001.9 hPa NE 10.3 km/h 20.4 km/h 25 % 0 mm
15:21 38.4 °C 14.3 °C 1001.9 hPa North 5.3 km/h 9.3 km/h 24 % 0 mm
15:26 38.7 °C 14.6 °C 1001.9 hPa NW 10.1 km/h 16.7 km/h 24 % 0 mm
15:31 38.1 °C 14.6 °C 1001.9 hPa NNE 11.6 km/h 20.4 km/h 25 % 0 mm
15:36 37.7 °C 14.9 °C 1001.6 hPa North 7.1 km/h 9.7 km/h 26 % 0 mm
15:41 37.9 °C 15.1 °C 1001.6 hPa North 4 km/h 9.3 km/h 26 % 0 mm
15:46 38.2 °C 14.7 °C 1001.6 hPa North 14.3 km/h 16.7 km/h 25 % 0 mm
15:51 38.4 °C 14.3 °C 1001.6 hPa NW 10.5 km/h 18.5 km/h 24 % 0 mm
15:56 38.3 °C 13.6 °C 1001.6 hPa North 9.8 km/h 18.5 km/h 23 % 0 mm
16:01 38.6 °C 13.7 °C 1001.2 hPa NNE 8 km/h 11.3 km/h 23 % 0 mm
16:06 38.3 °C 13.6 °C 1001.2 hPa NNE 3.2 km/h 5.6 km/h 23 % 0 mm
16:11 38.4 °C 13.7 °C 1001.2 hPa North 14 km/h 20.4 km/h 23 % 0 mm
16:16 38.5 °C 13.7 °C 1001.2 hPa North 7.1 km/h 7.4 km/h 23 % 0 mm
16:21 38.6 °C 13.7 °C 1001.2 hPa NNW 5.3 km/h 7.4 km/h 23 % 0 mm
16:26 38.8 °C 13.2 °C 1000.9 hPa NNW 1.3 km/h 5.6 km/h 22 % 0 mm
16:31 39.1 °C 13.5 °C 1000.9 hPa North 20.4 km/h 22.2 km/h 22 % 0 mm
16:36 39.1 °C 13.4 °C 1000.9 hPa NW 15.8 km/h 19.3 km/h 22 % 0 mm
16:41 38.9 °C 13.3 °C 1000.9 hPa NNE 12.1 km/h 18.5 km/h 22 % 0 mm
16:46 39.1 °C 13.4 °C 1000.9 hPa WNW 4 km/h 5.6 km/h 22 % 0 mm
16:51 39.2 °C 12.9 °C 1000.9 hPa NNE 12.9 km/h 22.2 km/h 21 % 0 mm
16:56 39.1 °C 12.8 °C 1000.9 hPa NE 13.7 km/h 22.5 km/h 21 % 0 mm
17:01 38.9 °C 12.6 °C 1000.9 hPa NE 8.2 km/h 12.9 km/h 21 % 0 mm
17:06 38.9 °C 13.4 °C 1000.9 hPa NNE 5.1 km/h 9.3 km/h 22 % 0 mm
17:11 39.3 °C 12.2 °C 1000.6 hPa North 5.5 km/h 9.3 km/h 20 % 0 mm
17:16 39.2 °C 12.9 °C 1000.6 hPa North 8.7 km/h 11.1 km/h 21 % 0 mm
17:21 39.1 °C 12.8 °C 1000.6 hPa NW 2.4 km/h 5.6 km/h 21 % 0 mm
17:26 39.3 °C 13.7 °C 1000.6 hPa NNE 6.1 km/h 16.1 km/h 22 % 0 mm
17:31 39.3 °C 13.7 °C 1000.6 hPa North 10.1 km/h 16.7 km/h 22 % 0 mm
17:36 39.2 °C 12.8 °C 1000.6 hPa NNE 12.6 km/h 18.5 km/h 21 % 0 mm
17:41 39 °C 12.7 °C 1000.2 hPa North 1.8 km/h 3.7 km/h 21 % 0 mm
17:46 39.2 °C 12.2 °C 1000.6 hPa North 15.6 km/h 25.9 km/h 20 % 0 mm
17:51 39.1 °C 12.8 °C 1000.2 hPa North 7.2 km/h 11.1 km/h 21 % 0 mm
17:56 38.9 °C 11.9 °C 1000.2 hPa NNE 19.5 km/h 29 km/h 20 % 0 mm
18:01 39.1 °C 12 °C 1000.6 hPa North 6.3 km/h 13 km/h 20 % 0 mm
18:06 39 °C 11.9 °C 1000.2 hPa North 3.9 km/h 7.4 km/h 20 % 0 mm
18:11 39 °C 12.7 °C 1000.2 hPa NNW 6.8 km/h 9.7 km/h 21 % 0 mm
18:16 39 °C 12.7 °C 1000.2 hPa NNW 1.8 km/h 5.6 km/h 21 % 0 mm
18:21 39.2 °C 12.8 °C 1000.2 hPa NNW 5.1 km/h 9.7 km/h 21 % 0 mm
18:26 39.2 °C 12.8 °C 1000.2 hPa North 13 km/h 18.5 km/h 21 % 0 mm
18:31 38.9 °C 12.6 °C 1000.2 hPa NNW 6.3 km/h 9.3 km/h 21 % 0 mm
18:36 38.9 °C 12.7 °C 1000.2 hPa NNW 0.6 km/h 3.7 km/h 21 % 0 mm
18:41 39.4 °C 12.3 °C 1000.2 hPa North 7.9 km/h 16.7 km/h 20 % 0 mm
18:46 39.3 °C 12.9 °C 1000.2 hPa North 8.7 km/h 13 km/h 21 % 0 mm
18:51 39 °C 12.7 °C 1000.2 hPa NW 8.5 km/h 11.1 km/h 21 % 0 mm
18:56 38.6 °C 13.1 °C 1000.2 hPa NNW 5.8 km/h 9.7 km/h 22 % 0 mm
19:01 38.2 °C 12.8 °C 1000.2 hPa NE 8.4 km/h 14.8 km/h 22 % 0 mm
19:06 38 °C 12.6 °C 999.9 hPa NNE 10.3 km/h 14.8 km/h 22 % 0 mm
19:11 37.8 °C 12.4 °C 999.9 hPa NNE 6.1 km/h 9.3 km/h 22 % 0 mm
19:16 37.7 °C 12.4 °C 999.9 hPa NNE 1.1 km/h 3.7 km/h 22 % 0 mm
19:21 37.6 °C 12.9 °C 1000.2 hPa NNE 5.8 km/h 11.1 km/h 23 % 0 mm
19:26 37.5 °C 12.8 °C 1000.2 hPa NNE 5.6 km/h 9.3 km/h 23 % 0 mm
19:31 37.3 °C 12.7 °C 1000.2 hPa NNE 4.8 km/h 7.4 km/h 23 % 0 mm
19:36 37.2 °C 12.6 °C 1000.2 hPa NNE 6.3 km/h 9.3 km/h 23 % 0 mm
19:41 37.1 °C 13.2 °C 1000.2 hPa NNE 5 km/h 5.6 km/h 24 % 0 mm
19:46 37 °C 13.1 °C 1000.2 hPa NNE 3.1 km/h 5.6 km/h 24 % 0 mm
19:51 36.8 °C 12.9 °C 1000.2 hPa NNE 2.7 km/h 5.6 km/h 24 % 0 mm
19:56 36.7 °C 13.5 °C 1000.2 hPa NNE 2.3 km/h 5.6 km/h 25 % 0 mm
20:01 36.5 °C 13.3 °C 1000.2 hPa NNE 3.7 km/h 5.6 km/h 25 % 0 mm
20:06 36.3 °C 13.8 °C 1000.2 hPa NNE 2.1 km/h 3.7 km/h 26 % 0 mm
20:11 36.1 °C 13.5 °C 1000.2 hPa NNE 1.3 km/h 3.7 km/h 26 % 0 mm
20:16 35.8 °C 13.3 °C 1000.2 hPa NNE 3.1 km/h 5.6 km/h 26 % 0 mm
20:21 35.7 °C 13.8 °C 1000.6 hPa NNE 2.4 km/h 9.7 km/h 27 % 0 mm
20:26 35.6 °C 13.7 °C 1000.2 hPa NNE 3.9 km/h 7.4 km/h 27 % 0 mm
20:31 35.5 °C 13.6 °C 1000.6 hPa NNE 4 km/h 5.6 km/h 27 % 0 mm
20:36 35.4 °C 13.6 °C 1000.6 hPa NNE 2.7 km/h 5.6 km/h 27 % 0 mm
20:41 35.2 °C 13.9 °C 1000.6 hPa NNE 2.6 km/h 3.7 km/h 28 % 0 mm
20:46 35 °C 13.8 °C 1000.6 hPa NNE 1.8 km/h 3.7 km/h 28 % 0 mm
20:51 34.7 °C 14.1 °C 1000.6 hPa NNE 1 km/h 3.7 km/h 29 % 0 mm
20:56 34.5 °C 13.9 °C 1000.6 hPa NNE 1 km/h 3.7 km/h 29 % 0 mm
21:01 34.2 °C 13.7 °C 1000.6 hPa Calm   1.9 km/h 29 % 0 mm
21:06 34 °C 14 °C 1000.6 hPa Calm     30 % 0 mm
21:11 33.7 °C 14.2 °C 1000.6 hPa NNE 2.6 km/h 5.6 km/h 31 % 0 mm
21:16 33.4 °C 13.9 °C 1000.9 hPa NNE 2.6 km/h 4.8 km/h 31 % 0 mm
21:21 33.1 °C 14.2 °C 1000.9 hPa NNE 0.5 km/h 5.6 km/h 32 % 0 mm
21:26 32.8 °C 13.9 °C 1001.2 hPa Calm   1.9 km/h 32 % 0 mm
21:31 32.4 °C 14.6 °C 1001.6 hPa North 6.4 km/h 9.3 km/h 34 % 0 mm
21:36 32.4 °C 14.6 °C 1001.6 hPa North 3.5 km/h 5.6 km/h 34 % 0 mm
21:41 32.6 °C 14.2 °C 1001.9 hPa SSW 14.5 km/h 16.7 km/h 33 % 0 mm
21:46 32.7 °C 13.9 °C 1001.9 hPa SSW 10.5 km/h 18.5 km/h 32 % 0 mm
21:51 32.7 °C 12.9 °C 1001.9 hPa SSW 19.5 km/h 33.3 km/h 30 % 0 mm
21:56 32.6 °C 12.7 °C 1001.9 hPa SSW 7.9 km/h 16.7 km/h 30 % 0 mm
22:01 32.4 °C 12.6 °C 1002.3 hPa SW 11.7 km/h 18.5 km/h 30 % 0 mm
22:06 32.2 °C 12.4 °C 1002.3 hPa SW 8.9 km/h 11.1 km/h 30 % 0 mm
22:11 32 °C 12.8 °C 1002.6 hPa SSW 10.5 km/h 18.5 km/h 31 % 0 mm
22:16 31.8 °C 13.1 °C 1002.6 hPa SW 14.2 km/h 18.5 km/h 32 % 0 mm
22:21 31.7 °C 12.9 °C 1002.6 hPa SW 10.3 km/h 16.7 km/h 32 % 0 mm
22:26 31.6 °C 12.8 °C 1002.6 hPa WSW 13.7 km/h 19.3 km/h 32 % 0 mm
22:31 31.4 °C 12.8 °C 1002.6 hPa SW 9.2 km/h 16.7 km/h 32 % 0 mm
22:36 31.3 °C 13.1 °C 1002.9 hPa North 11.7 km/h 16.7 km/h 33 % 0 mm
22:41 31.2 °C 13.1 °C 1002.9 hPa SW 8 km/h 18.5 km/h 33 % 0 mm
22:47 31.1 °C 12.9 °C 1002.9 hPa SSW 11.9 km/h 11.9 km/h 33 % 0 mm
22:51 31 °C 12.8 °C 1002.9 hPa SW 7.9 km/h 11.1 km/h 33 % 0 mm
22:57 30.9 °C 13.2 °C 1002.9 hPa SW 9.8 km/h 11.1 km/h 34 % 0 mm
23:01 30.9 °C 13.2 °C 1002.9 hPa SW 8.9 km/h 13 km/h 34 % 0 mm
23:07 30.8 °C 13.1 °C 1002.9 hPa SW 10.1 km/h 13 km/h 34 % 0 mm
23:12 30.7 °C 13.1 °C 1002.9 hPa North 6.1 km/h 7.4 km/h 34 % 0 mm
23:17 30.6 °C 12.9 °C 1002.9 hPa North 4.7 km/h 6.4 km/h 34 % 0 mm
23:22 30.5 °C 13.3 °C 1003.3 hPa SW 4.2 km/h 5.6 km/h 35 % 0 mm
23:27 30.4 °C 13.3 °C 1003.3 hPa SW 3.2 km/h 7.4 km/h 35 % 0 mm
23:32 30.3 °C 13.6 °C 1002.9 hPa SW 2.7 km/h 7.4 km/h 36 % 0 mm
23:37 30.2 °C 13.5 °C 1002.9 hPa SW 2.1 km/h 4.8 km/h 36 % 0 mm
23:42 30 °C 13.7 °C 1002.9 hPa SW 1.3 km/h 3.7 km/h 37 % 0 mm
23:47 29.8 °C 13.5 °C 1003.3 hPa SW 2.4 km/h 3.7 km/h 37 % 0 mm
23:52 29.6 °C 13.7 °C 1002.9 hPa North 1.9 km/h 5.6 km/h 38 % 0 mm
23:57 29.3 °C 13.5 °C 1003.3 hPa SW 0.6 km/h 5.6 km/h 38 % 0 mm
Ararat Weather
Compliments of Weather Underground - 2.5 mb
Click here to send mail.


ABOUT

Live weather data from Ararat, Victoria, Australia, 3377
Data uploaded from Cumulus every 5 minutes to Weather Underground.
This site then downloads the raw data for formatting and display.
Metric and imperial data can be displayed. Graphs and historical data available.
Includes Sun and Moon times and rain image live from BOM.

Check out Ararat Weather on Facebook, Twitter and Google +

Help support ongoing costs by checking out the ads





Follow @AraratWeather